Theta_e
351 360 367 368 366 365 365 365 363 362 362 362 362 362 362 362 363 364 363 362 362 362 359 357 355 353 353 352 353 356 357 357 355 353 353 353 355 354 354 356 355 348 352
355 360 366 366 366 365 365 365 364 362 362 362 362 361 362 362 363 363 363 362 361 357 355 353 352 352 352 353 354 354 354 353 352 351 352 352 354 352 352 353 351 349 352
353 360 363 366 367 366 365 365 363 361 362 362 361 361 361 362 362 362 362 361 358 354 352 351 350 351 351 351 353 353 353 352 351 351 352 352 345 351 349 349 351 350 351
354 358 361 365 366 366 365 364 363 362 362 362 361 361 361 362 362 361 361 359 356 352 350 348 349 349 350 350 351 351 351 350 352 354 349 351 343 351 350 348 348 350 349
354 357 362 365 366 366 366 364 363 362 362 362 362 361 361 362 362 361 360 358 355 350 348 346 346 347 347 347 349 348 348 348 350 349 344 343 343 349 352 349 347 347 349
352 355 361 364 365 365 366 364 363 363 362 362 362 361 362 361 361 360 359 357 354 351 347 346 347 346 344 343 344 344 346 345 345 337 341 342 342 353 354 350 348 348 348
350 358 359 363 364 365 365 364 363 363 362 362 362 362 361 361 360 359 357 355 354 352 349 346 346 346 345 344 344 344 344 344 335 331 334 341 348 354 354 352 351 350 350
353 359 357 362 363 363 364 364 363 362 362 362 361 361 361 360 359 358 356 354 352 351 350 347 347 346 345 345 344 343 343 342 335 332 335 333 348 352 355 353 353 353 351
354 359 356 356 361 363 363 362 362 362 361 361 361 361 360 359 358 357 355 354 353 351 351 349 347 346 346 344 344 344 344 343 336 332 332 339 349 350 349 351 354 354 354
348 357 354 354 354 357 360 362 361 361 361 360 360 360 359 358 357 356 355 354 354 352 351 349 348 347 346 346 346 346 346 344 337 331 331 338 346 347 345 347 351 356 356
344 355 352 349 351 352 354 359 360 361 361 360 360 359 356 353 353 352 351 353 354 353 351 351 350 349 348 348 347 348 347 337 334 335 337 349 348 347 344 346 349 352 355
341 348 352 350 350 349 347 356 357 358 358 358 357 357 354 351 352 347 349 354 354 353 352 351 351 351 350 340 341 348 341 338 337 342 341 350 351 349 347 348 350 351 355
341 343 353 355 354 350 348 354 350 351 353 355 357 357 354 349 351 345 349 347 350 352 346 347 347 344 340 341 347 343 341 343 344 345 345 351 351 352 350 352 353 353 355
338 344 347 357 359 357 352 353 351 346 347 347 349 355 353 351 350 347 348 346 346 345 342 343 343 345 346 353 353 352 350 350 348 349 345 351 350 351 353 353 354 355 355
336 346 347 348 356 357 362 354 353 347 345 345 347 352 353 348 351 352 350 349 347 344 344 346 346 350 350 352 353 353 350 352 350 350 350 352 349 350 353 354 355 355 356
339 347 349 342 346 364 359 362 359 351 349 347 348 351 352 351 349 349 351 353 351 348 348 346 347 347 352 352 352 353 351 352 352 352 350 351 350 350 352 355 356 356 357
343 347 349 343 337 352 361 362 364 358 349 346 347 351 351 353 350 348 347 346 348 352 353 351 349 351 351 349 347 351 353 353 352 351 352 352 351 351 352 354 356 356 356
340 340 351 348 355 361 364 364 362 362 359 355 350 352 352 351 354 354 348 346 347 348 348 347 345 345 343 342 342 347 349 352 350 350 351 350 350 349 351 353 354 355 355
341 343 344 351 351 362 364 363 363 362 361 360 358 353 356 354 352 357 348 351 352 346 344 344 344 342 340 340 341 349 351 350 349 348 348 350 352 350 348 353 352 352 353
333 339 340 342 350 365 364 363 362 361 359 358 357 355 351 355 355 352 355 350 357 349 349 349 347 346 343 342 343 345 350 351 353 351 350 350 350 350 351 350 348 348 350
331 334 341 343 346 351 358 356 357 355 356 356 357 358 357 357 357 356 352 352 354 351 349 351 349 345 341 346 344 346 349 351 351 349 350 349 350 349 350 349 351 352 351
333 337 338 340 350 347 345 357 357 356 353 356 356 356 360 356 356 354 352 351 350 351 355 352 347 341 341 343 342 341 333 339 347 349 349 352 350 350 347 347 353 355 356
332 333 336 343 345 351 347 343 346 354 352 349 350 353 355 358 357 355 353 352 351 351 349 350 349 342 337 344 346 339 330 326 335 344 347 347 347 351 352 351 353 355 354
327 331 337 342 345 342 348 346 344 340 343 344 347 350 352 355 354 355 355 355 353 351 349 348 348 345 341 341 345 345 342 339 327 327 341 344 348 347 347 349 348 352 355
327 329 334 340 340 344 348 348 340 339 337 339 342 346 347 354 354 353 354 350 351 351 350 348 345 345 344 344 341 340 339 337 337 330 324 328 339 344 345 345 338 333 330
324 327 332 334 339 341 344 344 342 342 340 339 340 342 344 342 354 355 354 352 347 350 347 347 348 347 347 347 343 341 337 333 332 331 328 327 327 331 337 334 331 334 332
Wind_Speed
17 17 16 18 18 17 16 16 14 14 13 12 12 12 12 12 12 12 12 12 12 11 11 10 10 9 9 10 11 11 10 9 8 8 7 7 9 8 9 10 15 11 11
21 18 18 18 18 17 16 15 15 14 14 13 12 11 11 12 11 11 11 11 10 10 10 10 9 9 8 9 9 9 8 6 4 2 4 6 8 9 9 10 12 8 9
19 16 17 18 19 17 16 15 14 14 13 13 13 12 12 11 10 10 10 10 10 10 10 9 9 8 8 8 7 7 6 4 4 5 4 6 6 11 9 7 7 8 7
17 14 15 17 17 18 16 14 14 14 14 13 13 12 11 11 11 10 9 9 9 9 9 9 8 8 7 6 5 4 4 3 6 8 7 7 8 9 10 8 5 6 5
16 14 14 16 16 17 17 16 14 13 14 14 14 13 11 11 10 9 8 8 8 9 9 8 7 6 5 5 4 2 2 4 7 9 9 6 4 8 7 8 4 5 8
18 16 16 15 15 16 16 16 16 15 13 14 13 13 12 11 10 9 7 7 7 7 7 7 6 4 4 3 2 1 2 4 7 9 7 6 3 11 8 7 5 6 7
18 18 16 14 14 15 16 15 15 16 15 14 14 14 13 12 11 10 8 6 6 6 7 7 6 4 3 2 0 2 3 6 7 8 9 2 8 11 8 6 4 4 5
18 16 15 15 14 14 14 14 14 14 16 16 15 14 14 13 12 11 9 8 7 6 5 5 5 4 2 1 2 3 4 5 8 8 8 1 10 9 8 6 4 2 1
18 16 13 14 12 13 14 14 14 14 14 14 15 14 13 12 12 11 10 9 8 7 7 6 5 3 4 4 5 6 6 7 5 6 10 5 10 9 7 5 4 3 3
13 17 14 12 13 11 11 13 13 14 14 14 14 15 15 13 12 11 11 11 10 9 8 8 7 6 6 7 8 9 9 10 8 8 8 4 12 9 7 4 4 4 6
12 15 15 16 13 12 12 12 13 15 14 14 14 15 13 8 10 13 11 14 14 13 12 11 10 9 9 10 12 12 10 6 9 8 3 13 11 9 7 5 5 5 7
15 17 16 15 15 14 11 13 11 11 9 9 10 11 7 7 9 11 11 14 12 11 11 12 12 11 9 7 7 13 6 9 9 6 3 13 12 10 8 7 7 6 8
13 13 19 14 12 13 10 9 6 6 7 8 10 10 8 7 5 7 7 7 6 9 6 8 7 6 10 9 7 8 10 9 6 3 9 13 12 11 9 8 7 8 9
11 8 12 4 12 7 7 9 9 8 8 7 9 10 8 6 6 6 6 9 8 6 8 7 7 9 10 7 4 4 4 2 3 2 5 11 12 12 11 9 9 10 10
9 9 8 18 10 5 7 7 9 9 9 10 10 11 9 9 5 5 5 6 8 8 9 6 7 5 5 4 6 6 6 2 3 1 3 12 11 11 12 12 11 11 11
4 8 10 14 13 10 8 6 4 8 7 9 9 10 12 8 7 7 6 5 5 6 8 6 5 5 4 4 7 6 4 4 4 2 2 5 12 13 13 13 13 12 12
1 12 13 10 8 10 9 8 4 4 7 7 8 10 14 9 8 8 8 6 5 4 6 5 6 5 4 4 6 4 6 6 6 6 5 5 6 13 14 14 14 14 13
4 6 10 18 23 20 12 7 5 5 4 6 7 7 14 14 8 6 6 8 8 6 5 4 5 5 5 5 6 7 6 6 6 6 4 5 5 4 11 14 15 16 15
2 3 2 5 7 14 12 9 8 8 6 5 6 7 9 13 13 7 9 6 6 7 7 7 5 4 5 8 8 5 5 4 5 5 7 5 6 6 4 10 14 15 16
5 8 7 5 7 6 9 8 7 8 8 8 7 7 11 10 14 11 7 10 7 9 9 8 8 6 4 4 5 4 4 4 4 4 6 6 7 7 6 6 5 6 13
6 5 3 4 7 4 5 7 7 9 9 10 10 13 12 12 14 13 10 11 11 9 12 10 7 7 6 5 5 4 3 5 4 5 4 6 6 6 7 7 5 5 6
8 8 6 5 4 4 4 5 4 7 10 9 9 10 8 13 14 13 14 13 15 11 9 9 11 8 8 9 8 4 4 4 6 7 5 5 6 3 4 6 9 8 6
6 5 1 3 5 4 6 5 5 7 7 6 9 13 12 13 16 16 15 14 14 14 12 11 9 13 11 10 11 6 5 6 5 5 8 5 5 4 4 6 6 6 6
5 5 4 4 2 3 5 4 8 6 8 10 9 6 11 18 19 18 18 17 19 13 14 13 13 13 12 10 7 8 6 1 2 2 4 6 5 3 4 4 4 6 7
5 4 5 6 6 2 1 4 6 8 7 5 7 11 11 11 15 18 19 20 16 14 14 15 16 15 13 10 9 11 11 5 4 4 3 3 0 4 1 5 6 7 12
5 5 5 7 6 7 4 5 6 7 8 8 9 9 9 10 8 17 19 17 19 16 17 13 15 17 15 15 9 10 8 8 6 4 4 4 4 3 3 3 3 3 3
Wind_Direction
130 135 133 131 131 135 138 139 137 134 132 128 125 119 111 105 104 105 101 98 99 101 102 99 93 87 82 82 80 77 76 75 71 76 90 97 99 69 53 36 24 76 73
131 139 136 134 134 137 141 141 139 139 136 132 126 122 117 114 114 113 111 106 105 103 101 98 96 93 92 93 90 86 81 71 56 62 104 125 130 97 67 54 60 76 77
132 134 139 136 136 139 143 143 141 140 140 137 134 132 127 121 119 116 117 116 116 115 111 107 105 102 98 93 88 85 78 57 350 339 313 260 139 120 104 80 80 85 86
135 144 138 137 139 143 145 144 143 145 145 142 138 136 134 130 131 128 125 123 123 120 116 114 113 111 109 104 99 86 64 13 335 323 288 246 139 125 119 105 88 93 84
137 152 133 138 140 142 145 147 146 149 150 148 144 140 137 133 131 130 132 130 131 125 118 115 111 113 112 111 101 81 38 335 317 301 285 50 68 133 124 117 136 101 65
141 148 138 137 138 140 144 148 151 153 155 150 146 141 138 136 129 127 131 132 128 121 118 116 114 112 112 105 95 2 331 307 304 277 276 115 68 135 138 121 95 73 72
142 125 141 136 140 144 147 151 156 156 154 154 150 146 142 137 131 130 131 124 125 126 129 131 128 128 123 107 89 285 303 309 296 300 299 146 124 141 147 134 111 81 77
119 135 146 144 144 147 149 155 156 160 155 156 153 148 143 142 143 142 142 142 142 138 139 142 139 141 150 189 262 279 288 293 302 292 292 1 137 143 144 148 135 113 82
135 135 152 159 154 149 151 154 157 158 157 156 150 145 144 146 148 150 149 152 154 156 160 157 163 177 215 219 236 256 269 279 282 281 287 91 127 128 134 156 161 172 212
153 137 152 163 168 168 165 159 161 161 159 154 152 151 150 151 157 162 160 168 167 168 171 173 180 197 226 241 244 239 244 257 257 256 261 141 139 140 142 161 184 195 215
162 138 155 173 174 181 170 172 165 166 163 160 159 160 155 174 174 169 194 175 178 178 179 186 192 202 219 233 240 239 240 249 244 226 241 136 145 144 156 173 194 205 224
164 162 158 177 172 184 182 160 177 178 181 185 183 172 190 205 174 184 179 169 183 193 195 194 197 206 221 238 230 219 221 236 245 237 144 153 153 153 168 185 193 210 219
198 181 158 166 163 186 205 149 174 182 186 188 196 177 195 200 205 196 148 166 177 201 212 203 207 221 218 229 227 183 212 228 237 233 143 158 160 160 180 195 200 205 220
210 143 85 80 147 200 200 161 172 191 184 186 196 187 181 214 202 179 162 183 184 182 217 198 208 208 224 219 277 263 248 273 271 33 157 165 172 172 188 203 209 208 215
22 98 78 94 318 182 267 176 172 196 181 187 186 189 187 193 199 193 189 197 182 186 201 215 221 202 184 214 233 216 229 276 344 286 164 183 188 185 194 201 215 215 219
95 133 139 147 175 204 221 255 187 185 182 183 187 188 197 182 203 186 190 214 196 201 193 196 200 198 213 226 219 211 226 223 264 262 268 174 193 202 204 203 209 219 222
226 147 148 170 231 208 206 231 231 194 212 191 191 186 188 201 203 190 190 211 211 224 215 193 194 181 178 230 263 224 198 206 204 226 215 208 207 209 208 208 207 212 215
13 359 169 185 184 188 194 192 237 234 216 222 201 179 187 195 196 199 201 200 207 202 196 213 197 185 186 206 224 226 201 204 193 208 219 240 223 217 214 218 205 206 208
283 344 294 18 317 178 182 183 207 221 227 221 226 199 175 195 202 211 213 217 200 225 221 202 236 209 196 215 219 203 201 189 205 200 210 219 223 214 200 206 215 207 204
64 48 9 346 322 325 174 187 206 210 222 227 217 216 204 203 195 208 221 220 220 209 209 203 196 199 202 206 246 214 214 215 219 243 233 200 216 214 202 203 186 212 216
128 130 211 247 282 307 292 187 218 226 212 217 225 213 204 188 190 194 215 241 231 230 212 197 188 186 211 201 198 237 203 208 232 250 238 265 234 202 180 190 190 190 209
171 180 183 214 230 250 268 272 243 213 220 211 214 220 201 186 197 206 212 222 229 225 223 200 191 193 205 201 195 193 197 248 227 225 218 203 229 240 237 220 201 189 212
160 141 185 246 218 228 222 287 296 256 260 264 230 199 206 198 196 211 214 222 230 220 212 209 193 198 203 204 184 175 211 206 186 196 217 207 212 200 238 223 221 190 198
38 14 356 310 256 225 244 258 266 275 263 248 253 239 221 204 204 206 213 217 221 226 221 206 207 203 207 201 191 225 249 184 189 180 199 213 190 184 296 317 263 221 211
18 338 344 328 258 211 20 313 300 295 280 259 277 243 254 208 214 216 214 217 221 220 229 220 207 207 207 206 186 200 216 210 199 173 220 274 132 191 107 340 21 342 347
14 6 32 357 350 338 310 263 255 276 284 292 295 305 290 248 215 217 225 220 216 215 218 230 218 203 208 210 216 197 184 189 189 180 182 209 221 274 121 199 187 252 60